EHI
0 0 0 0 0 0 0 0 0 0 0 0 0 1 2 2 2 2 1 0 1 1 1 0 1 2 5 8 11 12 13 14 14 11 9 8 6 4 3 2 3 4 4 4
0 0 0 0 0 0 0 0 0 0 0 0 0 1 2 2 3 3 2 1 0 0 0 1 2 4 7 10 13 14 15 17 17 14 11 9 5 3 3 3 3 4 4 4
0 0 0 0 0 0 0 0 0 0 0 0 0 0 1 2 4 4 3 1 0 0 1 2 3 5 7 10 13 15 17 20 21 18 13 11 8 6 5 5 5 4 4 4
0 0 0 0 0 0 0 0 0 0 0 0 0 0 1 2 3 4 3 2 0 1 3 4 4 5 5 8 11 15 18 22 23 21 17 14 12 9 7 7 6 5 4 3
0 0 0 0 0 0 0 0 0 0 0 0 0 0 1 1 2 2 3 3 2 3 5 7 7 7 7 8 12 16 20 23 23 22 19 15 11 9 8 7 7 6 5 4
0 0 0 0 0 0 0 0 0 0 0 0 0 0 0 1 2 2 3 3 4 6 9 10 10 10 9 11 14 17 21 25 24 21 19 15 11 10 9 8 7 7 6 5
0 0 0 0 0 0 0 0 0 0 0 0 0 0 1 2 3 2 2 3 6 8 11 12 11 10 11 12 15 17 22 25 23 21 20 18 16 15 13 11 10 10 8 6
0 0 0 0 0 0 0 0 0 0 0 0 0 0 1 3 3 2 2 4 7 10 11 11 9 9 10 12 14 16 20 22 21 19 20 22 21 18 15 14 13 11 9 8
0 0 0 0 0 0 0 0 0 0 0 0 0 0 2 3 3 3 3 5 9 11 11 11 10 9 10 11 12 13 16 19 19 17 16 18 19 17 16 15 13 10 10 11
0 0 0 0 0 0 0 0 0 0 0 0 0 0 1 3 5 4 3 5 8 10 12 13 12 10 10 10 10 12 15 17 17 15 12 12 13 15 15 15 13 10 11 12
0 0 0 0 0 0 0 0 0 0 0 0 0 0 1 3 5 5 4 4 6 8 10 12 14 13 12 12 11 13 16 18 17 15 13 10 10 11 14 16 14 12 12 12
0 0 0 0 0 0 0 0 0 0 0 0 0 0 0 2 4 5 4 4 5 7 7 10 15 16 16 15 15 15 16 18 19 18 15 12 11 13 15 16 15 13 13 12
0 0 0 0 0 0 0 0 0 0 0 0 0 0 1 2 3 4 4 5 6 6 6 9 14 18 20 20 18 17 17 19 19 19 18 16 15 18 19 17 16 16 15 14
0 0 0 0 0 0 0 0 0 0 0 0 0 0 1 1 2 4 5 6 7 8 8 10 14 18 23 24 21 18 18 19 20 22 22 21 20 21 21 21 20 19 17 14
0 0 0 0 0 0 0 0 0 0 0 0 0 0 0 1 3 5 6 7 9 10 11 12 14 18 23 26 24 19 18 20 22 23 23 22 22 22 22 23 23 22 19 15
0 0 0 0 0 0 0 0 0 0 0 0 0 0 1 3 5 7 8 9 10 11 12 12 14 17 22 25 25 20 18 21 24 23 22 21 22 23 23 24 24 22 20 17
0 0 0 0 0 0 0 0 0 0 0 0 0 1 3 5 7 8 9 9 10 9 9 9 11 14 20 23 23 20 19 22 24 24 23 22 21 22 23 23 21 20 19 18
0 0 0 0 0 0 0 0 0 0 0 0 0 1 4 6 8 8 8 8 9 8 7 7 9 13 17 20 21 21 21 23 24 23 23 22 20 20 23 24 21 19 17 16
0 0 0 0 0 0 0 0 0 0 0 0 0 2 5 8 8 7 7 8 8 8 7 8 10 13 15 17 20 23 24 23 23 22 21 19 19 20 23 24 21 19 16 14
0 0 0 0 0 0 0 0 0 0 1 1 1 3 6 9 10 9 9 9 8 7 8 10 13 14 15 16 20 24 25 23 21 20 19 18 18 19 20 21 20 18 16 13
0 0 0 0 0 0 0 0 1 2 3 4 3 3 6 9 12 12 11 10 8 6 8 11 14 15 16 18 20 23 24 22 20 19 18 17 17 16 15 17 18 17 15 13
0 0 0 0 0 0 1 2 4 5 6 7 5 4 6 9 12 13 13 11 8 7 8 10 12 13 14 16 19 20 21 19 17 17 17 17 15 12 13 16 17 16 14 13
0 0 0 0 0 1 3 6 7 7 7 7 5 4 5 7 11 13 13 11 9 9 10 10 10 12 12 14 16 17 16 15 14 15 16 16 13 11 12 14 15 13 12 12
0 0 1 1 1 3 5 7 8 8 6 4 3 2 3 6 11 14 13 11 10 10 11 10 10 12 13 14 15 16 15 13 13 14 15 14 12 11 10 10 10 10 9 9
0 1 2 3 3 3 5 7 8 8 7 4 2 2 5 9 13 14 12 10 9 9 9 11 12 14 15 16 17 18 16 13 12 13 12 11 10 9 8 6 5 5 5 4
0 1 2 4 4 4 5 7 8 8 8 7 4 4 8 13 15 14 10 8 8 8 9 12 14 16 17 19 21 20 17 13 11 11 10 8 8 8 7 4 2 2 2 1
Wind_Speed
4 6 4 2 4 5 5 5 3 4 2 2 1 2 3 5 5 6 6 6 6 6 6 5 5 5 6 6 6 6 5 5 5 4 4 3 3 2 2 1 1 1 2 1
7 6 2 2 3 5 5 5 2 2 2 2 1 1 2 3 4 4 5 6 6 6 6 6 6 6 6 6 6 6 6 6 6 4 3 2 2 2 1 0 1 1 2 2
9 1 2 4 5 6 5 4 4 3 1 4 3 3 3 4 3 3 4 5 5 5 6 7 7 7 7 7 7 6 6 6 6 5 4 3 3 2 2 2 1 1 1 2
6 4 5 7 5 6 3 2 4 4 5 1 4 2 4 4 4 4 4 5 5 5 6 7 7 7 7 7 7 7 6 6 6 5 4 4 3 2 1 1 1 1 1 1
6 5 7 7 5 5 4 3 5 6 6 5 3 5 4 4 2 3 3 4 4 4 5 5 6 7 6 6 6 6 6 6 5 5 5 4 3 2 2 2 2 2 2 2
8 5 6 6 4 4 3 5 6 7 8 5 2 5 0 2 0 1 3 3 3 3 4 4 5 5 5 6 5 5 6 5 5 5 5 5 4 3 3 3 2 3 2 2
9 9 7 7 7 6 8 8 6 7 6 2 1 5 1 3 2 2 2 3 3 3 4 4 4 5 5 6 6 5 6 5 5 6 5 5 5 5 4 4 3 3 2 2
9 8 7 6 8 6 7 10 8 7 6 3 4 3 2 3 3 2 2 3 4 4 4 4 4 5 5 5 6 6 6 5 5 5 5 4 4 4 3 3 3 3 2 1
7 6 5 4 5 8 7 8 7 9 8 8 3 2 3 3 2 2 3 4 4 4 4 4 4 4 5 5 5 5 6 5 5 5 4 4 4 3 2 2 3 2 2 2
6 6 6 5 6 5 7 6 7 7 8 9 6 5 2 2 1 1 2 3 4 4 4 4 3 3 3 4 4 4 4 4 4 5 4 4 4 4 3 2 2 2 2 2
8 8 7 8 8 7 7 7 7 7 8 10 8 2 3 1 1 1 2 3 3 3 4 4 3 3 3 3 4 4 4 4 4 4 4 4 4 4 3 3 3 3 2 2
6 8 7 7 3 4 7 7 8 8 7 8 10 1 4 2 2 1 2 3 3 3 3 4 3 3 4 4 3 4 3 4 4 4 4 4 4 3 3 3 3 3 3 3
4 7 8 9 9 8 7 7 8 8 8 8 10 2 4 3 2 2 2 3 4 3 3 3 3 3 3 2 2 2 2 2 2 3 4 4 4 3 3 3 3 3 3 3
6 8 10 11 5 4 7 8 8 10 8 9 9 6 3 3 3 2 2 3 4 4 3 3 3 2 2 2 2 2 2 2 2 3 3 3 3 3 3 3 3 3 3 3
6 8 9 9 7 7 8 9 9 11 11 11 9 8 3 3 3 2 3 3 3 3 3 2 2 2 1 2 2 1 1 1 1 2 2 2 3 3 3 2 2 3 3 3
4 6 8 9 9 9 10 11 11 11 11 11 11 8 2 2 3 3 3 3 2 2 2 2 1 1 1 1 1 1 1 1 1 2 2 1 2 2 2 3 2 2 3 3
5 6 8 10 8 10 13 11 11 11 10 10 10 5 2 3 4 3 3 2 1 1 1 0 0 1 1 1 1 1 1 1 2 1 1 1 2 2 2 2 2 2 3 3
5 7 7 8 7 14 5 2 6 9 8 7 7 4 4 4 4 4 3 3 2 1 1 1 0 1 1 1 1 1 1 2 2 1 1 1 1 2 2 2 3 3 3 3
6 7 7 8 11 10 6 4 5 8 7 5 5 4 4 3 4 4 2 2 1 1 1 1 0 1 1 1 1 1 1 1 1 1 1 1 2 2 2 2 2 2 3 3
5 7 9 9 11 11 2 2 1 6 8 3 4 4 4 5 6 3 4 2 1 1 1 1 1 1 1 1 1 1 1 1 1 1 1 2 2 2 2 2 2 2 3 3
7 7 10 12 12 7 3 1 4 8 1 2 1 3 5 5 3 3 3 2 2 1 1 1 1 1 1 1 1 1 1 1 1 1 1 1 1 2 2 2 2 2 2 2
6 7 8 9 12 5 4 1 3 4 4 2 1 2 2 1 1 1 2 2 2 1 1 0 0 1 2 2 1 1 1 1 1 1 0 0 1 2 1 1 1 2 2 3
5 5 5 5 3 3 2 2 3 3 3 3 3 2 3 2 2 1 2 2 2 2 1 0 0 1 1 1 2 2 2 2 1 1 0 0 1 1 1 2 2 2 2 3
3 3 5 5 3 2 2 2 3 3 4 4 4 4 5 4 3 2 2 2 2 2 1 1 1 1 1 2 2 2 2 2 1 1 1 1 1 1 1 2 2 2 2 3
3 4 5 7 4 4 3 3 4 5 5 5 4 4 5 5 4 3 2 2 2 1 1 2 2 2 2 2 2 2 1 2 2 1 1 1 1 1 1 1 2 3 2 3
5 6 6 5 3 5 4 5 5 6 6 6 6 5 5 5 4 4 3 2 2 2 2 2 2 2 2 2 2 1 1 2 2 2 2 2 2 1 2 1 0 2 0 1
Wind_Direction
213 239 247 309 326 330 316 311 345 36 57 292 339 41 122 162 190 194 191 189 191 192 184 181 185 186 185 186 186 190 191 180 191 194 201 195 193 199 195 192 181 226 256 262
218 230 256 289 284 273 273 281 322 63 63 290 326 34 125 160 191 198 197 199 198 191 187 184 185 187 191 190 193 194 190 186 192 189 201 211 227 215 182 166 132 241 246 260
242 239 189 242 250 259 264 293 320 334 277 203 263 166 145 156 179 186 206 214 207 201 197 190 193 195 194 193 198 199 195 191 193 187 190 186 189 203 186 186 185 230 249 248
241 228 225 242 244 265 269 336 297 284 268 213 286 305 120 153 170 181 200 207 207 199 197 192 191 194 200 197 192 194 191 192 189 190 200 201 202 201 196 213 196 209 212 235
224 217 231 244 262 267 309 305 277 272 264 256 230 283 106 137 169 170 183 198 199 196 194 187 188 189 193 191 187 184 183 186 189 196 199 209 214 211 209 199 181 227 199 218
247 235 254 262 263 250 236 235 234 239 251 251 293 281 30 96 329 166 155 164 168 172 176 177 176 177 180 178 179 178 171 174 183 193 201 208 211 218 227 222 217 219 207 213
223 220 215 231 232 209 229 248 244 235 236 254 141 269 16 53 53 35 98 136 142 146 155 158 162 164 168 170 173 174 172 176 181 188 197 204 209 212 220 232 219 244 238 217
227 218 204 217 244 248 239 259 273 283 283 261 189 259 76 80 82 88 99 122 122 127 131 142 152 156 161 165 171 173 173 178 180 185 191 199 204 214 217 227 252 239 257 263
239 228 179 209 246 258 244 254 280 274 273 275 250 198 172 150 142 123 122 123 121 121 121 131 144 153 160 163 169 175 175 176 177 182 184 187 195 216 226 217 234 244 243 244
253 248 216 193 212 219 270 265 248 262 277 273 256 241 241 168 154 134 137 131 127 130 124 123 131 142 153 161 165 166 169 173 176 180 192 180 187 201 217 233 243 267 260 258
246 243 220 211 227 231 214 229 258 268 275 281 282 285 59 139 161 142 123 141 143 141 129 123 127 134 146 151 155 166 177 178 181 190 194 201 194 196 212 223 241 249 259 256
236 251 246 225 212 280 258 252 247 255 262 270 281 284 95 131 154 141 123 133 146 143 128 121 118 131 145 149 156 165 184 190 190 187 194 199 203 206 212 215 237 249 253 253
225 246 242 219 201 203 229 230 244 257 260 263 273 250 122 138 146 138 133 136 142 143 131 127 122 123 136 146 155 164 182 192 191 190 198 193 200 212 224 231 240 252 256 257
255 246 257 267 278 221 218 226 236 251 260 267 268 269 189 187 186 171 155 151 154 152 148 143 139 139 135 144 149 160 173 181 187 198 206 196 202 214 228 238 248 253 254 256
249 243 246 264 273 262 252 242 236 246 263 276 282 275 249 227 211 188 173 164 158 149 148 152 161 156 158 160 164 158 160 163 186 203 212 208 207 209 231 243 251 258 258 261
260 254 245 246 248 250 252 251 247 248 256 260 267 270 266 231 197 182 173 170 159 137 145 149 151 160 169 169 164 166 172 167 180 208 216 206 218 219 231 241 248 262 269 269
240 238 250 249 242 249 244 243 246 246 247 259 265 272 241 207 194 193 184 177 161 122 97 96 159 208 253 245 212 203 179 173 185 193 201 203 224 235 242 253 258 264 273 274
242 251 254 256 242 248 256 271 258 256 255 263 273 263 234 223 205 189 180 176 170 125 103 105 186 238 267 270 246 226 192 186 193 194 210 224 232 243 247 251 259 265 264 269
236 239 251 253 249 249 234 227 241 248 247 251 253 236 209 207 213 181 155 152 167 134 103 75 337 325 310 306 272 223 209 189 191 203 229 243 244 246 246 251 262 271 268 263
195 228 246 245 257 257 250 101 256 250 236 217 225 206 201 210 233 167 126 142 141 103 88 62 32 353 12 20 9 230 222 212 217 251 266 266 253 246 243 245 253 261 261 263
204 217 237 246 252 254 38 33 224 237 327 57 213 200 212 227 309 63 132 141 135 122 100 60 25 20 22 3 351 246 241 248 250 254 264 282 289 262 244 243 244 247 250 263
245 238 231 243 247 237 61 183 262 352 9 338 274 224 236 270 360 134 157 172 180 178 166 87 25 16 11 358 332 300 306 312 291 242 255 4 327 309 317 277 258 254 259 249
248 283 284 273 290 34 351 341 354 333 309 300 283 275 263 254 248 237 213 210 210 210 209 244 312 335 341 342 323 300 314 312 291 268 320 335 299 306 293 270 262 250 250 265
217 272 266 262 248 292 293 305 303 308 305 300 287 274 263 260 257 248 241 239 228 212 215 250 285 297 322 331 320 308 304 294 277 286 305 285 267 286 288 283 280 283 289 288
260 242 250 250 264 267 254 277 291 297 297 295 290 282 272 261 252 248 244 241 238 243 251 267 279 289 303 306 295 300 302 291 283 285 281 280 291 306 300 302 332 309 334 328
237 245 257 266 272 282 296 299 297 295 295 293 290 284 277 265 253 248 245 246 250 252 249 254 266 281 290 292 288 291 281 271 267 260 266 274 276 276 271 256 282 46 309 71